Location: Nitra
(0.0000°N, 18.0833°E)
Time: 10:15:03
(UTC+02:00)

A-11 Canister half - Pass Details

Date: 30 March 2023
Orbit: 1513 x 1686 km, 47.2° (Epoch: 02 June)

Event Time Altitude Azimuth Distance (km) Brightness Sun altitude
Rises 06:04:54 0° 316° (NW) 4,921 11.3 -11.8°
Reaches altitude 10° 06:08:05 10° 314° (NW) 3,924 10.7 -11.0°
Maximum altitude 06:18:07 73° 231° (SW) 1,704 9.1 -8.5°
Drops below altitude 10° 06:27:51 10° 147° (SSE) 3,813 11.5 -6.1°
Sets 06:30:55 0° 145° (SE) 4,776 12.1 -5.3°
